Location: Sundre
(51.7972°N, 114.6405°W)
Time: 16:55:15
(UTC-07:00)

TIGRISAT - Pass Details

Date: 30 January 2020
Orbit: 605 x 689 km, 97.7° (Epoch: 24 February)

Event Time Altitude Azimuth Distance (km) Brightness Sun altitude
Rises 06:42:38 0° 117° (ESE) 2,893 ? -15.2°
Reaches altitude 10° 06:45:29 10° 97° (E) 1,979 ? -14.8°
Maximum altitude 06:48:10 17° 58° (ENE) 1,588 ? -14.4°
Drops below altitude 10° 06:50:51 10° 19° (NNE) 1,971 ? -14.0°
Sets 06:53:41 0° 359° (N) 2,875 ? -13.5°
